Location: Aetna Mine
(37.6183°N, 107.6045°W)
Time: 11:13:24
(UTC+00:00)

Cosmos 1484 Rocket - Pass Details

Date: 18 September 2020
Orbit: 507 x 558 km, 97.4° (Epoch: 20 October)

Event Time Altitude Azimuth Distance (km) Brightness Sun altitude
Rises 11:59:01 0° 8° (N) 2,730 6.6 -11.9°
Reaches altitude 10° 12:01:10 10° 5° (N) 1,838 5.7 -11.5°
Maximum altitude 12:05:06 66° 284° (WNW) 612 2.8 -10.7°
Drops below altitude 10° 12:09:03 10° 202° (SSW) 1,837 5.2 -9.9°
Sets 12:11:11 0° 200° (SSW) 2,728 6.1 -9.5°
